TimeCDT,TemperatureF,Dew PointF,Humidity,Sea Level PressureIn,VisibilityMPH,Wind Direction,Wind SpeedMPH,Gust SpeedMPH,PrecipitationIn,Events,Conditions,WindDirDegrees,DateUTC
12:15 AM,74.3,66.2,76,30.03,10.0,Calm,Calm,-,N/A,,Scattered Clouds,0,2013-08-20 05:15:00
12:35 AM,74.3,66.4,76,30.03,10.0,Calm,Calm,-,N/A,,Scattered Clouds,0,2013-08-20 05:35:00
12:55 AM,73.6,66.4,78,30.03,10.0,Calm,Calm,-,N/A,,Scattered Clouds,0,2013-08-20 05:55:00
1:15 AM,72.7,66.4,81,30.02,10.0,Calm,Calm,-,N/A,,Scattered Clouds,0,2013-08-20 06:15:00
1:35 AM,73.2,66.4,79,30.02,10.0,Calm,Calm,-,N/A,,Scattered Clouds,0,2013-08-20 06:35:00
1:55 AM,73.0,66.4,80,30.01,10.0,Calm,Calm,-,N/A,,Scattered Clouds,0,2013-08-20 06:55:00
2:15 AM,71.1,66.2,85,30.01,10.0,Calm,Calm,-,N/A,,Scattered Clouds,0,2013-08-20 07:15:00
2:35 AM,69.8,65.3,86,30.01,10.0,Calm,Calm,-,N/A,,Scattered Clouds,0,2013-08-20 07:35:00
2:55 AM,70.3,66.2,87,30.01,10.0,Calm,Calm,-,N/A,,Scattered Clouds,0,2013-08-20 07:55:00
3:15 AM,69.3,66.0,89,30.02,10.0,Calm,Calm,-,N/A,,Scattered Clouds,0,2013-08-20 08:15:00
3:35 AM,69.6,66.2,89,30.01,10.0,Calm,Calm,-,N/A,,Scattered Clouds,0,2013-08-20 08:35:00
3:55 AM,68.9,65.7,89,30.01,10.0,Calm,Calm,-,N/A,,Scattered Clouds,0,2013-08-20 08:55:00
4:15 AM,68.9,65.8,90,30.01,10.0,Calm,Calm,-,N/A,,Scattered Clouds,0,2013-08-20 09:15:00
4:35 AM,68.0,65.3,91,30.02,10.0,Calm,Calm,-,N/A,,Scattered Clouds,0,2013-08-20 09:35:00
4:55 AM,68.4,65.5,90,30.02,10.0,Calm,Calm,-,N/A,,Scattered Clouds,0,2013-08-20 09:55:00
5:15 AM,68.4,65.7,91,30.02,10.0,Calm,Calm,-,N/A,,Scattered Clouds,0,2013-08-20 10:15:00
5:35 AM,68.4,66.0,92,30.02,7.0,Calm,Calm,-,N/A,,Scattered Clouds,0,2013-08-20 10:35:00
5:55 AM,68.5,65.8,91,30.02,10.0,Calm,Calm,-,N/A,,Scattered Clouds,0,2013-08-20 10:55:00
6:15 AM,68.9,66.2,91,30.02,10.0,Calm,Calm,-,N/A,,Scattered Clouds,0,2013-08-20 11:15:00
6:35 AM,68.4,66.0,92,30.03,7.0,Calm,Calm,-,N/A,,Scattered Clouds,0,2013-08-20 11:35:00
6:55 AM,68.9,66.4,92,30.04,7.0,Calm,Calm,-,N/A,,Scattered Clouds,0,2013-08-20 11:55:00
7:15 AM,69.1,66.6,92,30.04,7.0,Calm,Calm,-,N/A,,Scattered Clouds,0,2013-08-20 12:15:00
7:35 AM,70.7,67.5,89,30.05,10.0,Calm,Calm,-,N/A,,Scattered Clouds,0,2013-08-20 12:35:00
7:55 AM,71.6,68.0,88,30.06,10.0,Calm,Calm,-,N/A,,Scattered Clouds,0,2013-08-20 12:55:00
8:15 AM,73.9,68.5,83,30.06,10.0,Calm,Calm,-,N/A,,Scattered Clouds,0,2013-08-20 13:15:00
8:35 AM,77.2,69.4,77,30.06,10.0,Calm,Calm,-,N/A,,Scattered Clouds,0,2013-08-20 13:35:00
8:55 AM,79.0,70.0,74,30.06,7.0,ENE,3.5,-,N/A,,Scattered Clouds,60,2013-08-20 13:55:00
9:15 AM,80.1,70.0,71,30.07,10.0,ENE,4.6,-,N/A,,Scattered Clouds,60,2013-08-20 14:15:00
9:35 AM,81.3,70.3,69,30.07,10.0,ENE,4.6,-,N/A,,Scattered Clouds,70,2013-08-20 14:35:00
9:55 AM,82.2,70.3,67,30.07,10.0,Calm,Calm,-,N/A,,Scattered Clouds,0,2013-08-20 14:55:00
10:15 AM,83.8,70.2,63,30.07,10.0,ESE,5.8,-,N/A,,Scattered Clouds,120,2013-08-20 15:15:00
10:35 AM,83.3,70.2,64,30.07,10.0,ENE,4.6,-,N/A,,Mostly Cloudy,60,2013-08-20 15:35:00
10:55 AM,84.6,70.3,62,30.07,10.0,ENE,5.8,-,N/A,,Mostly Cloudy,70,2013-08-20 15:55:00
11:15 AM,86.9,68.5,54,30.07,10.0,Calm,Calm,-,N/A,,Mostly Cloudy,0,2013-08-20 16:15:00
11:35 AM,86.9,67.6,53,30.07,10.0,Calm,Calm,-,N/A,,Scattered Clouds,0,2013-08-20 16:35:00
11:55 AM,87.4,67.3,51,30.07,10.0,East,3.5,-,N/A,,Scattered Clouds,100,2013-08-20 16:55:00
12:15 PM,89.4,66.2,46,30.06,10.0,NNE,4.6,-,N/A,,Scattered Clouds,20,2013-08-20 17:15:00
12:35 PM,90.0,66.4,46,30.06,10.0,ESE,4.6,-,N/A,Thunderstorm,Scattered Clouds,110,2013-08-20 17:35:00
12:55 PM,87.8,66.6,49,30.06,10.0,Calm,Calm,-,N/A,,Mostly Cloudy,0,2013-08-20 17:55:00
1:15 PM,82.9,69.1,63,30.07,10.0,SSE,17.3,23.0,N/A,,Scattered Clouds,150,2013-08-20 18:15:00
1:35 PM,81.5,69.6,67,30.07,10.0,SE,11.5,-,N/A,,Scattered Clouds,140,2013-08-20 18:35:00
1:55 PM,82.2,67.6,61,30.06,10.0,ESE,12.7,18.4,N/A,,Clear,120,2013-08-20 18:55:00
2:15 PM,84.0,68.2,59,30.06,10.0,SE,9.2,-,N/A,,Clear,140,2013-08-20 19:15:00
2:35 PM,85.6,68.4,56,30.06,10.0,SE,12.7,16.1,N/A,,Clear,130,2013-08-20 19:35:00
2:55 PM,84.4,68.5,59,30.05,10.0,SE,10.4,-,N/A,,Clear,130,2013-08-20 19:55:00
3:15 PM,85.1,68.9,58,30.05,10.0,SSE,9.2,-,N/A,,Clear,160,2013-08-20 20:15:00
3:35 PM,84.7,69.1,59,30.04,10.0,SE,8.1,-,N/A,,Clear,130,2013-08-20 20:35:00
3:55 PM,84.6,68.9,59,30.04,10.0,SSE,8.1,-,N/A,,Clear,150,2013-08-20 20:55:00
4:15 PM,85.5,69.3,58,30.04,10.0,SE,10.4,-,N/A,,Clear,140,2013-08-20 21:15:00
4:35 PM,85.1,68.4,57,30.04,10.0,SE,11.5,-,N/A,,Clear,140,2013-08-20 21:35:00
4:55 PM,85.5,69.4,59,30.03,10.0,ESE,9.2,-,N/A,,Clear,120,2013-08-20 21:55:00
5:15 PM,85.5,68.4,56,30.03,10.0,SSE,9.2,-,N/A,,Clear,160,2013-08-20 22:15:00
5:35 PM,85.6,67.6,55,30.02,10.0,South,9.2,-,N/A,,Clear,180,2013-08-20 22:35:00
5:55 PM,84.6,68.4,58,30.01,10.0,SSE,3.5,-,N/A,,Clear,160,2013-08-20 22:55:00
6:15 PM,84.6,68.9,59,30.01,10.0,South,5.8,-,N/A,,Scattered Clouds,180,2013-08-20 23:15:00
6:35 PM,84.2,69.3,61,30.01,10.0,South,3.5,-,N/A,,Scattered Clouds,180,2013-08-20 23:35:00
6:55 PM,83.7,69.3,62,30.01,10.0,South,4.6,-,N/A,,Scattered Clouds,170,2013-08-20 23:55:00
7:15 PM,82.9,69.4,64,30.01,10.0,SSE,3.5,-,N/A,,Scattered Clouds,150,2013-08-21 00:15:00
7:35 PM,82.0,69.8,66,30.02,10.0,Calm,Calm,-,N/A,,Scattered Clouds,0,2013-08-21 00:35:00
7:55 PM,81.5,70.2,68,30.03,10.0,ESE,3.5,-,N/A,,Scattered Clouds,120,2013-08-21 00:55:00
8:15 PM,80.6,70.5,71,30.03,10.0,East,3.5,-,N/A,,Scattered Clouds,100,2013-08-21 01:15:00
8:35 PM,79.7,70.0,72,30.03,10.0,SE,3.5,-,N/A,,Clear,140,2013-08-21 01:35:00
8:55 PM,79.2,69.1,71,30.04,10.0,ESE,3.5,-,N/A,,Clear,120,2013-08-21 01:55:00
9:15 PM,78.8,68.9,72,30.04,10.0,Calm,Calm,-,N/A,,Clear,0,2013-08-21 02:15:00
9:35 PM,78.3,68.9,73,30.05,10.0,Calm,Calm,-,N/A,,Scattered Clouds,0,2013-08-21 02:35:00
9:55 PM,77.5,68.9,75,30.05,10.0,Calm,Calm,-,N/A,,Scattered Clouds,0,2013-08-21 02:55:00
10:15 PM,77.2,68.9,76,30.05,10.0,Calm,Calm,-,N/A,,Scattered Clouds,0,2013-08-21 03:15:00
10:35 PM,76.6,68.9,77,30.06,10.0,Calm,Calm,-,N/A,,Scattered Clouds,0,2013-08-21 03:35:00
10:55 PM,76.1,69.1,79,30.05,10.0,Calm,Calm,-,N/A,,Scattered Clouds,0,2013-08-21 03:55:00
11:15 PM,75.6,68.9,80,30.05,10.0,Calm,Calm,-,N/A,,Scattered Clouds,0,2013-08-21 04:15:00
11:35 PM,75.2,69.1,81,30.06,10.0,Calm,Calm,-,N/A,,Scattered Clouds,0,2013-08-21 04:35:00
11:55 PM,74.8,69.1,82,30.07,10.0,Calm,Calm,-,N/A,,Scattered Clouds,0,2013-08-21 04:55:00